Location: Altleiningen
(49.5078°N, 8.0741°E)
Time: 11:48:03
(UTC+00:00)

Cosmos 1959 Rocket - Pass Details

Date: 03 March 2021
Orbit: 948 x 996 km, 83.0° (Epoch: 12 April)

Event Time Altitude Azimuth Distance (km) Brightness Sun altitude
Rises 19:10:44 0° 179° (S) 3,608 7.3 -19.6°
Reaches altitude 10° 19:13:13 10° 178° (S) 2,666 6.6 -20.0°
Maximum altitude 19:19:16 71° 95° (E) 1,002 4.3 -21.0°
Drops below altitude 10° 19:25:22 10° 13° (NNE) 2,691 6.8 -21.9°
Sets 19:27:53 0° 11° (NNE) 3,645 7.6 -22.3°
